User: anonymous   Login
Location: Brachbach
(49.1847°N, 9.7240°E)
Time: 19:46:28
(UTC+00:00)
Language:

Cosmos 2219 Rocket - Orbit

View from above orbital plane
View from above orbital plane
View from above satellite
View from above satellite

Ground track
Ground track

The orbit data is extracted from the following two-line orbital elements,

1 22220U 92076B   24207.47805619  .00000202  00000-0  12503-3 0  9995
2 22220  71.0015 355.7109 0014988 276.6779 156.3323 14.16673899638282
Epoch (UTC): 25 July 2024 11:28:24
Eccentricity: 0.0014988
inclination: 71.0015°
perigee height: 826 km
apogee height: 847 km
right ascension of ascending node: 355.7109°
argument of perigee: 276.6779°
revolutions per day: 14.16673899
mean anomaly at epoch: 156.3323°
orbit number at epoch: 63828

The dashed part of the orbit path shows where the satellite is in the earth's shadow,  

DLR